Вернуться в каталог

BREEZE-M DEB

TANK

АктивенHEO
NORAD 28188·DEBRIS·🇷🇺 Russia

Запущен Mar 15, 2004 с Baikonur Cosmodrome

Loading…

Ближайшие Пролёты (ближайшие 24 часа)

TLE

СвежийSource: Space-Track

Эпоха: Sep 13, 2026, 09:00 UTC

1 28188U 04008B   26256.37554544  .00002694  00000-0  42204-3 0  9993
2 28188  49.5259 359.1778 4915642 269.3640  36.5520  5.76698614439733

Отслеживайте BREEZE-M DEB в реальном времени с AllMySat

Download on the App Store